Location: Montreal
(45.5087°N, 73.5540°W)
Time: 06:42:30
(UTC-04:00)

N. Korean satellite - Visible Passes

Search period start: 30 March 2017 00:00
Search period end: 09 April 2017 00:00
Orbit: 461 x 520 km, 97.2° (Epoch: 28 March)

Date Brightness Start Highest point End Pass type
(mag) Time Alt. Az. Time Alt. Az. Time Alt. Az.
30 Mar 9.9 20:21:08 10° WSW 20:22:42 12° W 20:24:15 10° WNW visible
31 Mar 9.4 19:57:07 10° SSW 19:59:57 22° W 20:02:45 10° NW visible
03 Apr 10.1 20:24:50 10° WSW 20:25:55 11° W 20:27:00 10° WNW visible
04 Apr 9.5 20:00:28 10° SW 20:03:07 20° W 20:05:47 10° NW visible
08 Apr 9.5 20:03:41 10° SW 20:06:10 18° W 20:08:40 10° NW visible
